Theta_e
315 316 316 317 317 317 317 317 318 319 320 319 319 319 319 319 319 319 319 319 319 319 319 320 320 321 322 322 322 315 317 335 334 330 336 333 335 334 335 329 330 338 339 341
316 317 318 317 316 317 317 318 318 318 319 319 318 318 319 319 320 319 320 319 319 318 318 318 319 319 320 324 322 318 316 316 322 334 331 335 333 339 339 335 333 336 328 337
316 317 317 317 316 316 316 316 316 316 317 318 318 318 318 318 319 319 319 318 318 319 318 318 318 318 318 321 323 321 318 315 315 328 336 332 330 331 333 335 336 334 336 335
316 317 317 316 315 315 315 316 316 317 317 317 318 318 319 320 320 320 319 318 317 318 318 319 318 317 319 319 321 322 320 318 314 314 328 335 343 336 330 331 333 335 334 335
316 316 316 316 315 315 315 316 316 316 316 316 316 317 317 318 318 318 318 317 317 318 318 317 318 318 318 318 319 321 323 319 316 325 317 317 338 343 340 344 343 341 339 335
316 316 317 316 316 316 316 315 316 316 315 316 316 317 318 318 320 319 318 317 317 318 318 318 318 318 317 318 318 320 321 322 321 314 313 314 319 326 331 337 341 339 341 337
319 317 318 317 316 316 315 315 316 317 319 318 318 320 320 319 319 319 318 316 316 316 319 318 318 317 318 318 318 318 319 321 321 322 320 315 314 315 319 328 333 340 341 340
319 320 319 319 319 319 317 316 317 320 321 321 320 320 319 319 318 317 317 316 316 316 318 318 318 318 318 318 318 318 318 319 321 322 322 322 321 316 314 314 317 321 325 329
319 319 317 317 318 318 319 317 317 320 320 321 318 320 320 318 318 317 316 316 316 316 317 317 318 317 317 317 317 318 318 318 320 321 322 323 324 323 317 316 324 326 327 332
316 317 315 317 318 317 317 317 319 320 320 318 315 317 320 320 318 317 317 316 316 317 317 317 317 317 316 316 316 317 317 317 318 319 321 320 321 324 325 324 315 314 316 322
316 318 315 317 319 318 319 316 316 317 321 321 319 319 319 319 319 319 318 317 317 316 317 316 316 316 316 316 316 317 317 317 317 318 319 320 320 320 323 326 325 323 316 312
315 317 317 316 316 317 316 318 318 322 322 320 321 319 318 318 317 318 318 316 316 316 317 316 316 316 316 316 316 316 316 316 317 316 316 317 318 319 320 323 327 325 319 314
315 316 318 314 316 317 317 316 317 317 320 320 321 320 318 318 318 317 317 317 317 317 317 317 316 316 316 315 316 316 315 315 315 316 316 317 318 318 318 319 322 328 326 322
312 313 314 314 313 316 315 315 315 315 320 317 317 316 318 317 316 318 316 317 318 317 317 317 317 317 316 316 316 315 315 314 314 314 314 316 318 318 319 319 323 325 331 330
313 313 313 312 313 314 315 316 316 316 315 317 316 315 315 317 317 318 315 316 318 318 318 317 316 316 316 316 315 314 314 314 314 314 315 314 317 317 318 319 318 322 327 330
313 316 315 315 315 314 315 314 315 314 314 314 314 314 315 317 316 317 316 316 316 316 316 316 315 315 314 314 315 313 312 312 313 312 312 316 316 318 318 319 320 323 326 329
312 315 315 316 314 314 313 315 317 317 316 316 317 316 316 316 317 317 316 316 316 315 314 314 313 314 314 314 314 313 312 312 312 312 313 315 317 317 317 319 320 321 325 327
312 313 314 315 314 314 313 314 316 316 317 315 316 316 317 316 315 314 314 313 313 314 314 314 314 314 314 313 313 312 312 312 312 313 313 313 315 316 316 318 319 320 324 328
313 313 314 314 316 315 314 317 316 316 315 317 316 315 314 314 313 313 312 313 313 312 312 312 312 311 311 312 311 311 311 311 311 311 311 313 314 314 317 318 319 320 327 325
314 314 315 315 316 315 314 316 314 315 315 316 314 314 314 313 315 316 312 311 310 311 311 311 311 311 311 311 311 310 311 312 312 312 312 313 312 312 315 318 319 320 324 326
315 315 315 315 316 314 316 315 314 315 318 314 313 312 312 313 311 311 311 311 310 311 311 310 310 311 310 310 310 310 311 311 311 311 312 313 313 311 313 319 318 318 324 325
317 316 317 316 318 318 314 313 316 315 313 313 311 310 310 310 309 308 308 308 308 308 308 309 309 309 309 309 309 310 310 310 311 311 312 313 314 315 316 319 319 319 322 322
318 317 317 316 318 316 312 312 311 311 311 311 311 309 309 309 307 306 306 306 306 306 306 306 307 307 307 307 308 308 309 311 311 312 312 313 314 315 317 317 318 319 322 325
314 313 315 315 314 312 310 311 310 310 310 310 309 309 308 307 305 305 305 305 305 305 304 304 305 305 306 307 307 307 308 309 312 313 312 314 315 315 316 317 318 319 326 330
313 312 310 311 311 308 309 308 308 309 309 309 309 307 306 305 305 304 303 303 303 303 303 303 304 304 305 305 306 307 308 309 310 311 312 315 315 314 314 314 315 323 328 333
310 309 308 309 306 306 307 307 308 310 309 308 307 306 305 304 303 302 302 302 301 301 301 300 301 301 303 304 306 307 308 310 312 313 314 315 316 316 316 320 324 327 332 332
Wind_Speed
18 13 13 18 18 21 20 24 19 20 12 16 15 14 16 18 21 20 20 20 21 21 19 12 16 11 8 9 11 11 18 19 25 27 31 25 14 30 40 39 37 34 33 34
16 16 17 17 19 21 14 16 17 21 20 16 11 15 16 19 20 23 21 22 22 21 21 22 18 16 7 8 11 11 12 13 14 29 25 38 38 22 29 25 30 35 32 34
17 18 16 12 13 12 14 17 18 21 19 17 12 15 16 24 27 31 24 20 20 22 23 25 22 14 16 9 14 14 12 10 11 17 23 29 39 47 53 43 40 36 26 29
16 18 14 8 15 13 18 18 19 16 19 12 12 16 20 19 22 23 27 24 18 22 16 15 14 14 13 13 10 7 11 11 15 17 19 22 25 42 55 54 50 44 42 36
18 17 14 14 15 16 15 18 12 14 14 13 20 13 17 18 15 12 10 9 9 9 9 11 13 14 13 11 11 9 6 7 9 14 20 24 28 30 35 30 33 36 40 36
21 28 19 16 12 12 11 16 18 13 13 15 21 19 18 17 20 18 15 17 13 14 12 10 9 8 8 10 9 8 7 6 7 10 11 18 24 28 28 29 28 34 43 41
22 22 17 23 18 15 13 11 10 9 13 16 12 15 17 11 9 20 18 18 14 10 14 12 13 12 10 6 8 9 9 5 7 9 9 12 17 20 26 26 28 32 34 26
11 20 12 7 15 5 13 16 10 9 10 12 14 9 8 5 9 12 11 8 5 6 17 17 14 7 7 7 6 7 5 8 10 11 12 11 12 18 20 20 21 28 35 29
12 10 4 26 12 12 18 17 14 10 18 15 11 18 12 5 12 12 10 10 11 5 10 10 7 9 9 8 9 8 9 12 12 13 14 13 15 18 19 22 22 26 27 26
13 19 8 4 7 13 21 14 8 9 12 17 14 15 7 13 14 12 11 10 8 7 6 5 9 14 16 17 14 14 16 16 15 16 17 18 16 17 17 21 23 27 29 31
12 17 15 3 3 7 19 15 11 10 9 4 8 6 5 10 9 8 2 6 6 8 12 11 10 13 14 11 13 15 16 16 19 20 18 17 20 20 19 21 23 25 27 28
10 5 8 18 15 20 17 9 10 6 9 12 12 16 9 5 4 12 16 11 11 19 11 11 13 13 13 14 15 16 16 17 19 22 25 27 24 24 23 23 24 25 28 29
8 4 5 10 14 14 9 22 14 11 11 15 6 9 5 6 10 11 21 26 24 17 13 14 16 14 16 18 19 20 19 21 24 24 25 27 25 26 27 27 27 26 26 29
3 9 12 13 16 7 3 15 21 14 9 15 18 19 17 6 6 17 24 32 37 28 14 11 10 14 17 15 16 20 24 27 28 28 31 33 31 27 28 28 28 29 27 29
4 12 14 17 19 22 16 17 19 21 18 17 17 22 18 15 15 18 33 41 23 19 18 18 17 18 19 22 26 25 23 24 25 30 31 39 37 31 31 33 34 32 29 29
6 11 12 16 20 21 20 18 26 25 22 22 22 23 17 24 27 16 14 15 20 22 22 24 27 27 29 26 25 24 26 28 28 35 43 34 39 32 29 30 33 32 33 32
6 5 8 10 16 14 15 11 15 16 10 10 11 19 22 22 12 19 14 16 17 24 27 28 29 31 28 30 30 28 27 28 32 34 37 36 28 30 31 33 33 34 35 32
9 11 8 10 16 15 13 9 12 14 8 11 14 9 17 17 23 27 27 28 28 28 27 29 29 32 27 22 26 27 28 28 31 33 33 38 32 37 35 35 35 35 34 33
9 6 5 4 9 15 10 8 7 5 15 14 16 19 24 30 35 28 28 30 31 34 34 35 32 30 33 31 30 33 35 33 34 39 40 36 41 41 28 35 35 34 32 35
4 7 4 7 5 5 10 18 24 16 11 19 23 21 24 32 18 16 34 41 42 42 39 39 39 36 34 34 34 32 36 36 34 36 36 36 35 42 37 35 33 36 30 31
3 3 10 9 6 8 14 22 22 9 11 30 30 31 29 20 23 43 40 42 42 43 43 44 42 37 34 33 35 37 36 35 33 35 35 33 34 40 42 37 38 42 32 33
5 3 4 5 4 4 22 16 10 15 27 28 32 32 34 37 41 45 50 48 46 45 45 43 40 39 37 37 33 34 36 38 34 30 34 35 36 38 36 33 36 38 37 36
3 3 3 4 5 15 24 17 23 25 30 31 38 38 37 39 43 53 49 46 45 44 43 41 40 40 41 38 35 36 39 35 35 34 35 33 34 34 33 34 34 37 37 36
4 11 3 8 6 19 24 23 25 35 35 38 41 36 40 41 50 49 47 44 43 43 44 42 42 42 42 39 37 38 38 35 32 35 39 35 33 35 33 36 37 37 33 33
3 8 9 12 9 25 12 29 35 43 41 41 34 39 40 49 48 44 44 45 47 47 44 43 44 45 45 41 39 37 35 33 36 34 35 33 31 34 37 37 34 36 33 35
5 2 2 5 23 19 26 35 43 40 35 34 37 45 51 44 45 45 45 47 47 48 52 50 43 44 45 42 39 37 34 33 32 32 31 32 31 30 31 29 32 32 30 34
Wind_Direction
253 235 240 248 244 242 255 272 290 291 291 190 216 246 266 247 226 214 230 237 234 238 229 203 203 184 192 225 227 194 191 212 219 222 224 226 241 233 233 232 235 234 238 249
243 254 251 264 273 275 286 287 284 280 283 290 250 241 257 269 270 263 222 218 232 222 215 220 216 220 208 238 249 218 198 192 215 231 234 227 230 240 235 246 248 237 251 244
261 278 286 286 288 268 266 268 271 275 275 271 264 273 273 258 257 258 248 246 243 233 217 205 210 224 224 224 256 249 227 201 217 223 220 234 229 248 251 254 253 257 251 252
270 271 264 288 274 265 271 260 259 276 259 266 275 271 265 252 258 215 233 235 241 235 208 172 192 217 224 231 237 259 248 226 185 198 221 224 235 245 238 251 256 256 255 251
259 272 262 230 255 271 276 310 300 294 289 277 260 263 263 270 260 198 205 200 222 216 216 206 190 211 201 216 232 233 237 247 213 210 203 210 230 235 238 241 239 245 252 245
269 275 271 258 248 243 292 304 288 256 257 259 257 256 263 259 247 187 167 184 186 186 186 191 153 168 197 208 226 216 257 249 237 235 229 216 224 235 237 232 227 231 250 256
264 267 289 268 254 236 238 261 272 275 254 245 286 287 243 240 261 157 161 176 178 177 155 173 188 201 197 216 233 233 257 227 275 277 248 230 238 247 244 244 239 240 246 280
297 294 340 306 291 291 284 231 229 258 269 298 315 277 236 203 129 79 96 119 166 200 185 194 193 215 232 243 243 261 271 265 268 268 273 273 261 260 260 254 254 248 257 255
266 257 313 307 238 177 241 250 239 241 254 265 243 262 289 284 143 143 165 182 202 196 233 216 183 228 250 251 260 251 253 263 266 269 275 273 277 277 269 255 239 246 252 261
300 290 305 7 345 269 235 233 247 238 274 269 267 254 2 303 196 177 190 189 187 190 232 242 245 252 252 247 249 262 264 264 267 268 258 265 268 274 276 278 263 256 249 251
353 306 283 140 194 192 284 238 233 247 197 233 283 284 298 21 5 12 321 193 187 218 229 252 271 289 294 280 263 258 260 264 265 268 262 263 267 268 266 270 271 261 262 258
280 246 289 289 278 230 253 223 216 240 279 275 270 267 199 186 277 317 284 265 240 237 236 240 242 257 279 287 289 291 292 296 281 274 273 268 265 266 261 263 265 270 262 254
357 6 331 329 321 357 351 324 275 268 268 246 239 271 246 330 48 276 315 312 269 254 261 249 239 237 256 262 267 274 280 287 289 292 283 282 259 259 269 270 267 267 266 259
338 281 261 282 294 164 241 283 301 275 262 267 256 271 266 199 266 295 321 299 283 279 281 288 270 263 284 282 277 280 282 281 279 286 288 278 272 262 262 264 266 265 263 265
276 284 285 288 298 290 224 231 251 267 256 252 268 272 276 274 231 208 253 246 305 323 312 293 295 300 305 295 290 286 284 285 285 276 280 278 272 261 263 262 266 267 260 258
325 292 294 289 283 280 302 250 230 244 251 255 264 272 294 332 346 324 306 337 329 313 302 300 301 298 293 297 295 287 281 286 284 278 275 272 263 255 258 262 263 265 263 255
290 281 313 289 296 291 271 354 319 343 332 331 293 315 314 311 351 300 323 308 260 277 294 290 294 296 290 284 278 281 281 277 276 275 272 259 264 258 253 261 260 262 261 256
266 281 293 286 295 284 304 343 36 332 292 260 271 286 340 337 325 315 313 303 301 301 297 297 292 288 290 287 289 285 284 276 269 270 269 259 260 267 250 257 256 260 258 257
250 264 285 265 293 291 307 354 42 349 308 20 355 340 325 322 318 304 311 312 314 311 301 292 289 291 296 289 282 282 280 269 269 266 260 261 257 266 261 258 257 257 256 254
244 232 245 309 307 301 1 4 350 323 276 359 339 330 323 322 309 308 318 314 306 301 299 296 292 290 286 286 288 284 275 263 257 259 257 253 255 254 253 262 256 257 264 255
213 209 232 249 262 268 26 349 344 330 324 328 329 319 315 308 299 303 305 303 302 300 298 294 292 287 285 281 280 277 270 262 257 260 260 256 251 242 242 256 251 257 261 261
221 222 225 255 252 280 0 351 353 314 310 313 315 311 321 316 312 310 304 301 299 297 295 291 291 286 281 279 275 271 266 269 268 257 258 256 244 246 249 249 254 253 254 251
26 29 302 315 302 325 348 335 320 320 319 325 317 320 313 308 313 309 301 299 297 293 293 288 284 279 277 276 271 267 266 267 268 263 264 256 246 240 241 247 248 251 249 247
11 28 332 337 344 335 327 319 329 328 316 316 309 315 321 311 307 303 301 295 294 290 289 286 282 277 274 270 268 264 264 260 255 252 258 254 242 237 237 241 246 249 247 241
2 332 347 293 318 335 313 325 321 316 316 307 318 321 316 310 304 301 299 300 296 291 287 281 277 273 270 270 266 263 259 254 253 253 245 243 237 235 241 244 254 244 241 219
29 36 301 278 316 300 295 304 306 305 325 325 324 323 322 317 310 308 302 299 296 291 292 283 271 266 267 265 260 257 251 247 247 245 240 237 236 240 244 243 241 241 224 209